(109574) = 2001 QV269

Discovered at Socorro on 2001-08-19 by LINEAR.

Orbit

Orbit type: Main Belt

Note: WebGL enabled browser required.

epoch2023-09-13.0
epoch JD2460200.5
perihelion date2020-01-16.35498
perihelion JD2458864.85498
argument of perihelion (°)121.31786
ascending node (°)180.11317
inclination (°)5.83058
eccentricity0.2130371
perihelion distance (AU)1.8814733
Tisserand w.r.t. Jupiter3.5
ΔV w.r.t. Earth (km/sec)8.7
semimajor axis (AU)2.3908031
mean anomaly (°)356.10592
mean daily motion (°/day)0.26661720
aphelion distance (AU)2.900
period (years)3.7
P-vector [x]0.52146302
P-vector [y]-0.81332507
P-vector [z]-0.25802838
Q-vector [x]0.85327386
Q-vector [y]0.49697790
Q-vector [z]0.15791355
absolute magnitude16.35
phase slope0.15
uncertainty0
referenceMPEC 2024-A34
observations used956
oppositions17
arc length (days)11106
first opposition used1993
last opposition used2023
residual rms (arc-secs)0.73
perturbers coarse indicatorM-v
perturbers precise indicator003Ek
first observation date used1993-03-19.0
last observation date used2023-08-14.0
computer nameMPCLINUX
JD of orbit computation2456731.444473
perihelion JD uncertainty (days)3.2602E-05
argument of perihelion uncertainty (°)2.0450E-05
ascending node uncertainty (°)1.8530E-05
inclination uncertainty (°)3.6637E-06
eccentricity uncertainty 1.8152E-08
perihelion distance uncertainty (AU)4.5879E-08
Minimum Orbit Intersection Distances (in AU)
for orbit epoch: 2460200.5, reference: E2024-A34
Mercury1.4485
Venus1.1631
Earth0.87371
Mars0.51035
Jupiter2.35201
Saturn6.21351
Uranus15.6563
Neptune27.2582

Observations

948 total observations over interval: 1993 03 19.15104 – 2023 08 14.76041
These data are available for download (format description).

Date (UT) J2000 RA J2000 Dec Magn Location Ref
1993 03 19.15104 12 32 16.06 -02 44 23.9 19.2   809 – European Southern Observatory, La Silla MPS 37904
1993 03 24.11771 12 27 57.14 -02 03 27.4 19.6   809 – European Southern Observatory, La Silla MPS 37904
2001 07 17.47831 20 21 03.61 -08 16 53.8 18.4   608 – Haleakala-AMOS MPS 37904
2001 07 17.48917 20 21 03.07 -08 16 56.4 18.4   608 – Haleakala-AMOS MPS 37904
2001 07 17.49971 20 21 02.58 -08 16 58.9 18.4   608 – Haleakala-AMOS MPS 37904
2001 07 17.57673 20 20 58.98 -08 17 17.5 18.6   608 – Haleakala-AMOS MPS 37904
2001 07 17.58702 20 20 58.50 -08 17 19.9 18.6   608 – Haleakala-AMOS MPS 37904
2001 07 17.59749 20 20 58.03 -08 17 22.3 18.6   608 – Haleakala-AMOS MPS 37904
2001 08 19.20904 20 00 03.65 -11 45 48.5 18.5   704 – Lincoln Laboratory ETS, New Mexico MPS 34924
2001 08 19.22183 20 00 03.42 -11 45 52.7 18.4   704 – Lincoln Laboratory ETS, New Mexico MPS 34924
2001 08 19.23503 20 00 03.10 -11 45 59.3 18.4   704 – Lincoln Laboratory ETS, New Mexico MPS 34924
2001 08 19.24760 20 00 02.85 -11 46 05.3 18.6   704 – Lincoln Laboratory ETS, New Mexico MPS 34924
2001 08 19.26102 20 00 02.57 -11 46 11.1 18.6   704 – Lincoln Laboratory ETS, New Mexico MPS 34924
2001 08 24.45197 19 58 50.92 -12 22 57.8 19.9   608 – Haleakala-AMOS MPS 34924
2001 08 24.46219 19 58 50.82 -12 23 02.3 20.2   608 – Haleakala-AMOS MPS 34924
2001 08 24.47235 19 58 50.72 -12 23 05.7 19.6   608 – Haleakala-AMOS MPS 34924
2001 09 08.12131 20 00 34.28 -13 53 54.0 19.2   704 – Lincoln Laboratory ETS, New Mexico MPS 34924
2001 09 08.13526 20 00 34.49 -13 53 58.6 19.1   704 – Lincoln Laboratory ETS, New Mexico MPS 34924
2001 09 08.14931 20 00 34.83 -13 54 03.7 19.3   704 – Lincoln Laboratory ETS, New Mexico MPS 34924
2001 09 08.16322 20 00 35.06 -13 54 06.9 19.7   704 – Lincoln Laboratory ETS, New Mexico MPS 34924
2001 09 12.15255 20 02 21.06 -14 14 11.5 19.7   704 – Lincoln Laboratory ETS, New Mexico MPS 34924
2001 09 12.16696 20 02 21.45 -14 14 15.5 19.4   704 – Lincoln Laboratory ETS, New Mexico MPS 34924
2001 09 12.18153 20 02 21.85 -14 14 20.2 19.1   704 – Lincoln Laboratory ETS, New Mexico MPS 34924
2004 03 15.30290 11 52 23.28 +00 12 05.1 20.0 V 691 – Steward Observatory, Kitt Peak-Spacewatch MPS 138839
2004 03 15.30644 11 52 23.05 +00 12 06.3 20.4 V 703 – Catalina Sky Survey MPS 103823
2004 03 15.32009 11 52 22.18 +00 12 12.4 20.4 V 703 – Catalina Sky Survey MPS 103823
2004 03 15.33042 11 52 21.76 +00 12 18.4 20.0 V 691 – Steward Observatory, Kitt Peak-Spacewatch MPS 138839
2004 03 15.33375 11 52 21.56 +00 12 19.6 20.2 V 703 – Catalina Sky Survey MPS 103823
2004 03 15.34752 11 52 20.74 +00 12 26.5 20.2 V 703 – Catalina Sky Survey MPS 103823
2004 03 15.35753 11 52 20.24 +00 12 31.9 20.0 V 691 – Steward Observatory, Kitt Peak-Spacewatch MPS 138839
2004 03 15.97942 11 51 46.81 +00 17 36.0 19.5 R 184 – Valmeca Observatory, Puimichel MPS 103823
2004 03 15.99525 11 51 45.88 +00 17 42.3 18.9 R 184 – Valmeca Observatory, Puimichel MPS 103823
2004 03 16.01098 11 51 45.09 +00 17 51.7 19.6 R 184 – Valmeca Observatory, Puimichel MPS 103823
2004 03 17.01087 11 50 51.05 +00 26 04.8 19.2 R 184 – Valmeca Observatory, Puimichel MPS 101132
2004 03 17.01866 11 50 50.59 +00 26 08.8 19.2 R 184 – Valmeca Observatory, Puimichel MPS 101132
2004 03 17.02584 11 50 50.17 +00 26 11.7 19.5 R 184 – Valmeca Observatory, Puimichel MPS 101132
2004 03 18.33968 11 49 38.90 +00 37 03.1 19.5   704 – Lincoln Laboratory ETS, New Mexico MPS 101132
2004 03 18.35110 11 49 38.23 +00 37 09.3 19.7   704 – Lincoln Laboratory ETS, New Mexico MPS 101132
2004 03 18.36221 11 49 37.59 +00 37 14.1 19.6   704 – Lincoln Laboratory ETS, New Mexico MPS 101132
2004 03 18.37341 11 49 36.96 +00 37 19.6 19.6   704 – Lincoln Laboratory ETS, New Mexico MPS 101132
2004 03 18.39067 11 49 36.05 +00 37 28.9 19.7   704 – Lincoln Laboratory ETS, New Mexico MPS 101132
2004 03 20.24898 11 47 54.83 +00 52 52.5 19.3 R 699 – Lowell Observatory-LONEOS MPS 103823
2004 03 20.27425 11 47 53.48 +00 53 05.5   699 – Lowell Observatory-LONEOS MPS 103823
2004 03 20.29958 11 47 52.04 +00 53 19.2   699 – Lowell Observatory-LONEOS MPS 103823
2004 03 20.32494 11 47 50.62 +00 53 31.7   699 – Lowell Observatory-LONEOS MPS 103823
2004 03 23.30239 11 45 08.59 +01 18 15.0 19.9 V 691 – Steward Observatory, Kitt Peak-Spacewatch MPS 102102
2004 03 23.33057 11 45 07.00 +01 18 29.1 19.7 V 691 – Steward Observatory, Kitt Peak-Spacewatch MPS 102102
2004 03 23.35952 11 45 05.39 +01 18 43.4 19.7 V 691 – Steward Observatory, Kitt Peak-Spacewatch MPS 102102
2004 03 27.33845 11 41 32.33 +01 51 25.8 19.9   704 – Lincoln Laboratory ETS, New Mexico MPS 103024
2004 03 27.34882 11 41 31.75 +01 51 30.2 19.6   704 – Lincoln Laboratory ETS, New Mexico MPS 103024
2004 03 27.35936 11 41 31.29 +01 51 35.5 20.2   704 – Lincoln Laboratory ETS, New Mexico MPS 103024
2004 03 27.36965 11 41 30.67 +01 51 40.1 19.7   704 – Lincoln Laboratory ETS, New Mexico MPS 103024
2004 03 31.18634 11 38 13.93 +02 22 13.9 20.2 V 291 – LPL/Spacewatch II MPS 103024
2004 03 31.20970 11 38 12.71 +02 22 25.0 20.1 V 291 – LPL/Spacewatch II MPS 103024
2004 03 31.23295 11 38 11.46 +02 22 35.9 20.0 V 291 – LPL/Spacewatch II MPS 103024
2004 04 13.13685 11 28 41.40 +03 54 20.8 20.1 V 691 – Steward Observatory, Kitt Peak-Spacewatch MPS 104227
2004 04 13.16533 11 28 40.30 +03 54 31.3 19.9 V 691 – Steward Observatory, Kitt Peak-Spacewatch MPS 104227
2004 04 13.19315 11 28 39.23 +03 54 41.7 19.9 V 691 – Steward Observatory, Kitt Peak-Spacewatch MPS 104227
2004 04 15.14845 11 27 30.21 +04 06 29.8 19.6   644 – Palomar Mountain/NEAT MPS 104227
2004 04 15.16917 11 27 29.47 +04 06 37.4 19.7   644 – Palomar Mountain/NEAT MPS 104227
2004 04 15.19006 11 27 28.73 +04 06 44.6 19.7   644 – Palomar Mountain/NEAT MPS 104227
2004 04 15.20383 11 27 28.10 +04 06 49.4 19.9   704 – Lincoln Laboratory ETS, New Mexico MPS 104227
2004 04 15.21452 11 27 27.79 +04 06 52.7 19.7   704 – Lincoln Laboratory ETS, New Mexico MPS 104227
2004 04 15.22527 11 27 27.43 +04 06 56.9 19.9   704 – Lincoln Laboratory ETS, New Mexico MPS 104227
2004 04 15.23602 11 27 26.98 +04 06 59.5 20.0   704 – Lincoln Laboratory ETS, New Mexico MPS 104227
2004 04 21.17241 11 24 31.81 +04 38 38.2 20.3 V 691 – Steward Observatory, Kitt Peak-Spacewatch MPS 105007
2004 04 21.20329 11 24 30.98 +04 38 47.4 20.2 V 691 – Steward Observatory, Kitt Peak-Spacewatch MPS 105007
2004 04 21.23071 11 24 30.27 +04 38 54.8 20.3 V 691 – Steward Observatory, Kitt Peak-Spacewatch MPS 105007
2005 07 31.72095 01 05 58.59 +08 37 50.2 19.9 V E12 – Siding Spring Survey MPS 138839
2005 07 31.72965 01 05 58.95 +08 37 53.5 18.8 V E12 – Siding Spring Survey MPS 138839
2005 07 31.73843 01 05 59.31 +08 37 53.5 19.5 V E12 – Siding Spring Survey MPS 138839
2005 07 31.74711 01 05 59.67 +08 37 53.5 19.4 V E12 – Siding Spring Survey MPS 138839
2005 08 03.37800 01 07 53.54 +08 41 58.2 19.5   704 – Lincoln Laboratory ETS, New Mexico MPS 138839
2005 08 03.38970 01 07 54.00 +08 41 58.5 19.9   704 – Lincoln Laboratory ETS, New Mexico MPS 138839
2005 08 03.41314 01 07 54.92 +08 41 59.8 20.0   704 – Lincoln Laboratory ETS, New Mexico MPS 138839
2005 08 03.42492 01 07 55.39 +08 42 01.5 19.6   704 – Lincoln Laboratory ETS, New Mexico MPS 138839
2005 09 04.04008 01 14 08.68 +07 28 46.8 18.7 R 504 – Le Creusot MPS 140984
2005 09 04.04734 01 14 08.57 +07 28 42.7 18.8 R 504 – Le Creusot MPS 140984
2005 09 04.05538 01 14 08.33 +07 28 40.7 18.8 R 504 – Le Creusot MPS 140984
2005 09 04.13328 01 14 06.76 +07 28 13.5 19.2 R 504 – Le Creusot MPS 140984
2005 09 04.14041 01 14 06.60 +07 28 11.0 19.0 R 504 – Le Creusot MPS 140984
2005 09 08.31021 01 12 31.56 +07 01 12.9 18.9   704 – Lincoln Laboratory ETS, New Mexico MPS 140984
2005 09 08.32156 01 12 31.24 +07 01 08.0 19.1   704 – Lincoln Laboratory ETS, New Mexico MPS 140984
2005 09 08.33289 01 12 30.90 +07 01 03.3 19.3   704 – Lincoln Laboratory ETS, New Mexico MPS 140984
2005 09 08.34421 01 12 30.57 +07 00 58.8 19.4   704 – Lincoln Laboratory ETS, New Mexico MPS 140984
2005 09 09.29324 01 12 04.63 +06 54 20.7 18.6   704 – Lincoln Laboratory ETS, New Mexico MPS 140984
2005 09 09.30442 01 12 04.27 +06 54 15.0 19.1   704 – Lincoln Laboratory ETS, New Mexico MPS 140984
